星链-34075 (STARLINK-34075)

导读 | 豆包AI

STARLINK-34075是美国太空探索技术公司SpaceX星链(Starlink)星座中的一颗低轨宽带卫星,于2025年5月10日发射入轨,旨在为全球尤其是地面网络覆盖不足的偏远地区提供高速、稳定的卫星互联网服务,助力实现全域宽带连接,支撑消费、商业及特殊场景的联网需求,进一步扩充星链星座规模。

基本信息
目录编号:
63917
目录名称:
STARLINK-34075
国际标识:
2025-095AD
轨道中心:
EARTH
卫星名称:
星链-34075
卫星全名:
星链-34075 (STARLINK-34075)
卫星状态:
在轨 (已飞行308 天)
发射日期:
2025-05-10 UTC
国别 :
美国 (US)
星等 :
--
轨道信息
数据来源 国际轨道数据
星历时间: 2026-03-14T22:46:57+0800
5小时前
查看轨道信息
半长轴: 6861.091km
偏心率: 0.0001256
轨道倾角: 42.999°
近地点辐角 260.438°
升交点赤经 148.181°
平近点角 99.633°
近地点: 482.092km
远地点: 483.816km
周期: 94.265分钟
每日圈数: 15.276118
详细信息
固有亮度:
5
最大亮度:
2.5
卫星平台:
Starlink V1.0
覆盖范围:
全球
运营商:
太空探索技术公司
运营商所在国:
美国
制造商(研发单位):
太空探索技术公司
制造商所在国:
美国
使用方式:
暂无
卫星简介
Starlink 计划是 SpaceX 推出的全球卫星互联网项目,通过发射低轨道卫星,为全球尤其是偏远地区提供高速、低延迟的互联网服务。自 2019 年起,Starlink 已部署数千颗卫星,旨在缩小全球数字鸿沟,推动互联网普及。该项目还为军事、航空等行业提供通信支持,带来广泛经济效益。
2D轨道图
3D轨道图
轨道高度分析图
轨道倾角分析图
轨道综合分析图
查看轨道综合分析图